Regional Weather Roundup
Issued by NWS

Home | Current Version | Previous Version | Text Only | Print | Product List | Glossary Off
Versions: 1 2 3 4 5 6 7 8 9 10 11 12 13 14 15 16 17 18 19 20 21 22 23 24 25 26 27 28 29 30 31 32 33 34 35 36 37 38 39 40 41 42 43 44 45 46 47 48 49 50

000
ASUS43 KOAX 182110
RWRNE

WEATHER ROUNDUP FOR NEBRASKA
NATIONAL WEATHER SERVICE OMAHA NE
400 PM CDT WED APR 18 2018

NOTES: SATELLITE DATA IS BEING USED TO AUGMENT CLOUD COVER ABOVE
       12000 FEET.
       "FAIR" INDICATES FEW OR NO CLOUDS BELOW 12,000 FEET WITH NO
       SIGNIFICANT WEATHER AND/OR OBSTRUCTIONS TO VISIBILITY.


NEZ001>004-019>022-054>056-182200-
NEBRASKA PANHANDLE

CITY           SKY/WX    TMP DP  RH WIND       PRES   REMARKS
SCOTTSBLUFF    MOSUNNY   54  23  30 NW22      30.22S
ALLIANCE       MOSUNNY   54  23  30 NW25G32   30.17S
CHADRON        PTSUNNY   58  25  28 NW18G30   30.17S
GORDON         FAIR      54  24  31 N24G37    30.15S
KIMBALL        MOSUNNY   52  20  28 NW20G25   30.23S
SIDNEY         MOSUNNY   55  20  25 NW21G31   30.22S
$$

NEZ057>060-069>072-079>082-182200-
SOUTHWEST NEBRASKA

CITY           SKY/WX    TMP DP  RH WIND       PRES   REMARKS
NORTH PLATTE   PTSUNNY   57  32  38 N23G41    30.16F
IMPERIAL       PTSUNNY   59  23  25 NW23G39   30.18R
LEXINGTON      CLOUDY    52  33  48 N28G39    30.17S
MCCOOK         MOSUNNY   58  30  34 N28G41    30.15S
OGALLALA       PTSUNNY   58  26  30 N22G28    30.17F
$$

NEZ005>010-023>029-035>040-094-182200-
NORTH CENTRAL NEBRASKA

CITY           SKY/WX    TMP DP  RH WIND       PRES   REMARKS
VALENTINE      PTSUNNY   46  34  62 N13G22    30.18F
AINSWORTH      CLOUDY    38  34  85 N15       30.19S WCI  29
BROKEN BOW     CLOUDY    46  33  60 N21G31    30.17R
O`NEILL        CLOUDY    37  33  87 NW13      30.19R WCI  28
ORD            CLOUDY    41  32  70 NW21      30.17R
THEDFORD       CLOUDY    47  34  60 N17G28    30.18R
$$

NEZ041-046>049-061>064-073>077-083>087-182200-
SOUTH CENTRAL NEBRASKA

CITY           SKY/WX    TMP DP  RH WIND       PRES   REMARKS
GRAND ISLAND   CLOUDY    44  32  62 NW24G37   30.16R
AURORA         CLOUDY    43  33  68 NW28G35   30.16R
HASTINGS       PTSUNNY   46  32  58 N29G39    30.17R
HEBRON         CLOUDY    48  32  53 NW25G38   30.14S
HOLDREGE       CLOUDY    51  33  50 N23G31    30.15R
KEARNEY        CLOUDY    46  31  55 N21       30.17R
YORK             N/A     45  32  61 N20G31    30.13R
$$

NEZ011>018-030>034-042>045-182200-
NORTHEAST NEBRASKA

CITY           SKY/WX    TMP DP  RH WIND       PRES   REMARKS
NORFOLK        CLOUDY    37  30  75 NW21G26   30.13R WCI  26
ALBION         CLOUDY    40  33  75 NW17      30.17R WCI  31
BLAIR          CLOUDY    38  30  72 NW20G29   30.08R WCI  28
COLUMBUS       CLOUDY    40  30  67 N17G28    30.15R WCI  31
FREMONT        CLOUDY    40  32  72 N9G21     30.12R WCI  34
TEKAMAH        CLOUDY    38  31  76 N17       30.11R WCI  28
WAYNE          CLOUDY    36  35  96 NW17      30.13R WCI  26
$$

NEZ050>053-065>068-078-088>093-182200-
SOUTHEAST NEBRASKA

CITY           SKY/WX    TMP DP  RH WIND       PRES   REMARKS
LINCOLN        CLOUDY    45  28  51 N26G35    30.12R
OMAHA EPPLEY   CLOUDY    40  29  64 NW22G33   30.08R WCI  30
BEATRICE       CLOUDY    46  33  59 NW24G32   30.11R
FALLS CITY     CLOUDY    42  27  55 NW18      30.07R
NEBRASKA CITY  CLOUDY    42  31  65 N24G32    30.07R
PLATTSMOUTH    CLOUDY    40  28  62 NW20G26   30.07R WCI  31
$$

NEZ044-045-051>053-067-182200-
OMAHA AREA

CITY           SKY/WX    TMP DP  RH WIND       PRES   REMARKS
OMAHA EPPLEY   CLOUDY    40  29  64 NW22G33   30.08R WCI  30
BLAIR          CLOUDY    38  30  72 NW20G29   30.08R WCI  28
FREMONT        CLOUDY    40  32  72 N9G21     30.12R WCI  34
MILLARD        CLOUDY    41  31  67 NW16G23   30.10R
OFFUTT AFB     PTSUNNY   40  28  62 N16G24    30.08R WCI  32
PLATTSMOUTH    CLOUDY    40  28  62 NW20G26   30.07R WCI  31
WAHOO          CLOUDY    40  28  62 N20G30    30.11R WCI  30
$$




USA.gov is the U.S. government's official web portal to all federal, state and local government web resources and services.